Theta_e
342 347 355 356 354 355 353 354 354 354 354 355 355 355 355 355 355 356 355 355 355 354 354 354 354 354 354 354 354 354 354 354 354 353 353 353 352 351 351 351 352 352 352 352 351 350 350 350 350 350 348 348 347 347 347 347 346 346 346 345 346 346 347 347 347 347 349 349 348 347 346 345 344 344 344 343 342 340 340 340 342 344 343 341 340
342 349 358 358 355 354 354 353 354 354 354 354 354 354 355 354 354 354 354 354 354 354 354 354 354 355 355 355 354 354 354 354 354 353 353 351 350 349 348 348 348 350 350 351 352 351 350 349 349 348 348 347 347 346 346 345 345 345 346 346 346 346 347 347 347 346 347 347 346 345 343 343 343 343 342 342 342 341 340 340 343 343 339 339 339
345 352 358 358 355 354 354 354 354 354 354 354 354 354 354 354 354 354 354 354 354 354 354 354 355 355 355 355 355 354 354 353 353 352 351 350 350 351 350 348 347 348 349 349 348 347 348 347 348 347 347 347 347 346 346 345 344 344 344 344 343 343 343 344 346 346 346 347 344 343 342 343 343 343 343 343 342 342 341 341 342 342 341 340 340
347 354 356 357 355 354 354 354 354 354 354 354 354 354 354 354 354 353 354 354 354 354 355 355 355 355 354 355 354 354 353 353 352 351 350 350 350 350 350 350 349 348 347 347 347 346 346 346 346 346 346 347 347 348 347 347 347 346 346 345 345 344 342 344 345 345 345 345 345 347 348 348 346 343 343 343 343 342 341 341 341 341 341 341 339
349 352 353 357 355 354 353 354 354 354 355 354 354 354 354 354 354 353 354 354 354 354 354 354 355 355 354 354 354 353 353 352 352 351 350 350 350 349 348 347 346 345 346 347 346 345 345 345 344 344 346 346 347 347 348 348 347 346 346 345 345 345 345 343 342 344 344 343 342 344 342 342 345 342 343 342 342 341 341 341 340 340 340 340 339
350 352 353 354 353 353 353 354 354 353 354 353 353 353 354 354 354 354 354 354 354 354 354 354 354 354 354 354 353 352 352 352 351 351 351 350 349 349 348 347 346 346 345 345 345 346 346 346 346 346 346 345 347 347 347 347 347 346 346 345 344 345 345 344 343 342 342 345 340 344 343 344 344 344 342 342 339 338 339 339 340 340 340 340 340
349 352 353 353 353 352 353 354 354 354 354 353 353 354 354 354 354 354 354 354 354 354 354 354 354 354 354 353 352 352 352 352 352 351 351 351 351 351 348 346 346 346 344 344 344 344 345 345 346 347 347 347 347 347 346 346 346 346 345 346 345 344 344 345 344 343 342 340 345 342 342 341 344 343 342 342 342 341 341 341 340 341 340 340 342
352 352 351 352 352 352 354 353 354 354 354 353 353 353 353 354 354 354 354 354 354 354 354 354 354 353 353 352 352 352 352 352 351 351 351 351 351 350 349 349 348 346 346 344 344 344 344 346 347 347 348 347 347 347 346 346 344 345 345 343 345 345 345 344 345 345 345 345 343 344 343 342 342 343 342 343 341 339 342 340 340 341 341 342 343
348 350 352 352 352 352 353 353 353 354 353 353 353 353 353 354 354 354 354 354 354 354 354 354 353 353 353 353 352 352 352 352 352 352 352 352 351 351 349 347 346 346 346 346 345 345 346 346 346 346 347 348 347 347 346 345 346 345 346 345 344 344 345 345 345 346 348 342 343 341 345 342 341 343 341 341 341 340 340 342 340 340 341 340 340
347 351 352 352 353 354 353 353 352 353 353 353 353 354 354 354 354 354 354 354 354 354 354 353 353 353 353 352 352 352 352 352 351 351 352 352 351 351 348 346 346 346 346 346 346 346 346 346 346 347 348 348 347 346 346 346 346 346 347 346 346 346 347 346 345 345 347 343 341 342 339 345 341 341 340 342 342 340 338 338 339 340 339 338 338
348 352 352 352 353 353 352 352 352 352 353 353 354 354 354 354 354 354 354 354 354 354 354 353 353 353 353 352 352 352 352 351 351 351 352 352 351 350 348 347 347 347 347 347 346 346 346 346 347 347 347 346 346 346 346 347 346 347 347 347 346 347 347 347 347 348 345 341 342 344 340 339 346 346 344 342 342 340 339 338 339 340 338 338 338
348 352 353 352 356 352 353 352 352 352 352 353 354 354 354 354 354 354 354 354 354 354 354 354 354 353 353 352 352 351 351 351 350 351 351 350 350 349 349 349 347 347 346 346 346 346 346 346 346 346 346 346 346 346 346 346 347 347 347 346 346 344 345 346 348 343 344 341 341 346 343 344 344 343 343 342 341 341 339 340 339 339 339 338 337
347 349 351 355 354 353 352 352 352 351 351 353 354 354 354 354 354 354 354 354 354 354 353 354 354 353 353 352 351 351 351 351 350 349 349 349 349 350 350 348 347 347 347 346 346 346 346 346 346 346 346 346 347 346 345 346 346 348 347 346 344 345 345 348 349 342 340 341 343 345 343 346 347 343 342 341 341 339 340 339 339 339 339 338 338
346 348 351 353 353 353 352 352 351 351 351 352 353 353 354 354 354 354 354 354 354 354 354 353 353 352 353 352 351 351 350 350 349 349 349 348 347 350 350 348 347 346 346 346 346 346 346 346 347 347 347 347 346 346 346 345 346 346 348 347 344 345 346 349 349 342 342 341 345 342 344 346 349 344 342 342 340 340 340 340 339 339 339 339 338
347 350 351 352 353 351 353 352 351 351 350 351 352 353 354 354 354 354 354 354 354 353 353 353 353 352 352 351 351 350 350 349 348 348 348 347 347 348 348 348 347 346 346 346 346 346 345 345 345 346 346 346 346 346 345 345 346 346 347 347 344 344 345 346 340 340 340 340 342 342 341 346 345 345 342 342 341 341 341 341 340 340 339 339 338
349 349 350 352 351 349 352 352 351 351 351 352 352 353 353 354 354 354 354 354 353 353 353 353 352 352 351 351 350 350 349 349 348 347 347 347 347 346 347 347 346 346 346 345 346 346 347 346 345 345 345 345 345 345 345 344 344 346 345 346 345 344 346 346 341 342 342 343 342 343 343 345 344 342 344 343 342 342 341 341 341 340 340 339 338
349 351 350 349 349 350 348 352 350 351 351 352 353 353 353 353 354 353 354 353 353 353 352 352 351 351 350 350 349 349 348 348 348 347 347 346 346 345 345 344 344 344 345 344 345 345 346 346 346 345 345 344 345 345 344 343 342 343 344 344 346 345 344 346 343 342 340 340 337 339 342 341 344 343 343 343 343 342 341 341 340 341 340 340 339
348 350 350 349 349 349 348 349 350 352 351 353 353 354 354 353 353 353 353 353 353 352 352 351 351 350 349 349 348 348 347 347 346 346 345 344 345 345 344 343 343 343 343 343 343 344 343 345 346 345 345 344 344 344 343 343 341 342 344 345 345 344 345 346 346 341 341 341 339 340 340 351 345 344 343 344 344 343 342 341 341 341 340 340 339
348 350 351 349 349 349 348 349 350 348 349 351 350 356 353 353 353 353 353 352 352 351 351 351 350 349 348 348 347 347 347 346 344 344 343 343 344 342 342 342 341 342 342 342 343 343 343 344 345 345 345 345 344 343 341 338 341 341 343 345 347 346 345 347 344 339 341 344 342 339 344 346 346 343 344 345 345 343 342 341 341 341 341 340 340
346 350 349 349 349 349 349 346 348 349 349 350 350 353 354 353 353 353 352 352 351 351 350 350 349 348 348 347 345 345 344 344 341 342 342 341 340 344 343 342 341 340 341 342 342 342 342 344 344 343 345 345 344 343 340 340 337 340 342 347 347 348 346 346 341 339 339 339 341 341 348 347 345 344 344 345 346 345 343 343 343 342 342 341 340
346 348 349 348 349 348 347 346 347 348 349 350 351 351 352 353 353 352 351 351 351 350 350 349 348 347 347 346 345 346 346 345 342 345 340 344 342 339 338 340 340 340 340 341 341 341 342 342 343 344 343 344 343 342 341 339 338 338 340 342 348 343 345 341 342 340 340 339 342 342 348 348 345 344 344 345 347 346 344 343 343 343 342 342 341
344 346 348 349 349 350 348 346 346 348 348 349 349 350 354 352 354 354 354 353 351 351 351 350 349 349 346 346 347 345 345 346 346 341 345 342 339 337 338 339 339 340 339 341 341 341 342 343 342 342 342 339 342 341 341 341 340 337 337 342 340 341 342 342 343 339 339 341 342 348 348 347 345 345 344 345 347 347 346 344 342 343 342 342 343
340 344 347 350 350 349 349 345 344 347 348 349 349 350 352 352 353 353 352 350 352 352 350 349 348 346 347 345 345 346 345 345 346 344 344 341 343 341 340 339 339 339 340 340 341 342 342 341 342 339 341 338 339 336 335 338 341 341 341 343 343 339 341 342 341 340 340 341 340 349 350 346 345 345 346 346 346 347 347 346 343 342 342 342 343
342 344 346 349 348 348 348 347 347 347 348 348 349 349 350 351 352 353 354 353 353 351 349 348 348 345 343 346 346 346 346 348 342 342 343 345 344 343 342 342 341 340 342 341 341 341 340 337 338 340 343 342 340 339 337 338 337 344 344 340 339 340 341 342 339 341 342 339 340 344 348 346 345 345 346 347 347 348 347 346 344 343 342 341 342
344 345 347 347 348 348 347 347 348 348 348 347 349 348 350 348 350 351 351 351 352 350 349 349 347 345 346 346 343 345 344 345 346 346 345 345 344 343 345 346 346 343 339 344 340 336 343 339 341 342 341 340 340 341 339 338 340 338 339 339 340 342 342 343 342 343 343 345 349 343 343 344 345 345 346 347 348 348 348 346 345 344 343 342 342
346 344 345 346 347 347 347 347 347 348 348 347 348 347 350 348 350 350 351 351 350 349 349 347 346 345 347 345 345 345 345 345 345 345 344 346 345 345 345 344 345 343 344 342 342 342 341 340 339 339 341 343 343 343 344 341 342 341 344 346 346 345 345 344 345 348 348 348 347 343 343 343 344 345 346 347 348 348 348 347 346 345 344 343 342
342 344 346 346 345 347 348 346 346 347 349 348 348 347 349 349 350 350 349 349 349 348 346 345 344 345 346 346 344 342 344 343 344 344 344 346 345 345 344 346 347 344 346 344 342 342 341 341 340 342 343 343 345 347 347 347 348 343 344 344 346 345 346 347 345 346 346 346 346 342 344 343 343 344 345 347 347 348 348 347 345 346 345 343 343
343 345 345 346 345 345 347 348 346 347 349 349 349 348 347 349 350 348 350 349 348 348 345 343 345 344 347 346 346 343 342 342 345 344 345 347 345 347 347 346 347 345 348 346 345 343 343 345 347 347 345 348 346 347 346 344 346 348 345 344 344 345 347 345 348 348 346 347 345 346 346 343 343 344 345 346 347 347 348 347 346 345 346 344 344
343 344 345 345 345 346 347 346 347 347 347 348 349 347 348 349 349 349 348 349 349 347 346 346 346 345 347 348 348 345 343 344 345 345 347 347 347 348 346 347 349 347 348 347 350 349 349 348 350 349 350 349 348 349 345 344 347 347 344 342 343 343 346 346 347 345 346 346 346 344 345 342 343 343 343 344 346 347 348 348 347 345 344 345 345
343 344 345 344 345 346 345 345 347 346 347 348 347 347 348 348 349 349 349 349 347 348 347 344 346 345 345 347 347 347 345 345 345 347 346 347 347 348 348 348 349 348 350 351 351 351 350 350 349 350 347 349 347 347 346 344 341 343 341 340 343 343 345 344 345 343 344 344 346 345 345 346 343 343 343 344 344 346 346 347 347 345 344 344 344
344 344 344 343 345 346 345 345 347 347 348 346 347 348 349 347 348 348 349 348 348 348 346 344 345 346 346 348 349 348 348 348 347 347 348 346 347 347 347 348 347 348 351 351 353 352 352 352 351 350 349 347 346 346 343 342 341 338 339 338 339 341 342 343 342 343 342 342 343 345 344 346 346 341 342 342 343 344 346 347 347 346 345 344 344
343 343 344 345 344 345 345 346 346 347 347 346 347 347 348 348 349 348 347 348 349 347 345 344 343 346 347 349 348 348 348 348 348 348 348 346 346 346 347 348 347 349 351 351 350 353 353 352 351 351 349 348 346 346 346 341 340 337 338 335 337 339 339 340 341 342 343 344 344 345 345 344 345 344 343 341 342 342 344 344 344 345 346 346 345
344 345 344 344 343 345 343 344 345 347 346 346 346 347 349 347 348 348 348 349 348 347 345 343 346 348 349 349 349 349 350 348 349 348 348 347 347 349 347 349 349 350 350 351 351 352 353 352 352 348 348 347 346 345 343 341 339 339 338 336 338 338 341 341 342 342 342 343 343 344 345 345 344 344 341 344 341 341 341 341 342 344 344 345 345
343 342 344 342 343 342 343 344 344 345 345 345 346 345 347 347 348 347 348 348 346 345 345 345 346 347 348 349 348 349 349 347 348 348 347 346 347 347 348 348 348 350 350 351 349 350 350 350 347 344 344 344 342 343 339 338 337 338 339 339 339 341 343 342 340 340 342 343 344 346 344 343 343 346 344 343 342 340 339 340 341 341 342 343 343
343 342 342 341 342 342 343 342 344 344 345 344 346 347 349 347 346 347 347 347 347 346 345 346 346 346 346 346 348 348 348 348 348 348 347 346 346 348 347 348 350 351 348 349 349 350 350 347 343 343 345 341 341 342 340 341 339 337 339 341 339 340 342 341 341 339 340 343 344 346 346 344 344 346 345 342 343 339 340 339 339 340 339 340 340
343 342 342 342 342 344 344 344 345 344 344 345 346 347 348 348 347 347 347 348 346 345 344 346 346 346 346 347 348 349 348 348 348 347 348 346 345 346 347 350 349 350 348 349 350 349 350 346 346 346 342 339 339 340 340 340 340 338 341 341 341 341 340 339 340 340 342 342 343 345 344 345 345 343 343 342 343 344 338 340 339 339 338 338 339
343 342 343 342 343 344 342 343 342 341 342 344 345 346 347 347 348 347 347 348 346 343 344 347 346 346 346 345 348 349 348 348 348 348 347 347 345 348 350 351 351 349 350 349 348 349 349 344 346 347 346 339 337 338 340 340 339 339 339 338 340 340 339 339 340 341 342 342 342 342 343 343 343 341 343 343 342 342 341 338 340 340 338 337 338
343 343 343 342 343 343 342 343 342 342 342 343 344 345 346 347 347 346 347 346 347 345 346 345 345 345 346 345 347 348 348 348 347 347 347 348 348 349 352 351 351 350 350 349 349 349 347 346 345 346 344 343 339 340 340 340 339 337 337 338 340 339 338 341 342 341 340 339 341 341 341 343 342 342 342 342 342 341 341 339 338 337 338 338 337
343 343 343 343 343 343 341 341 342 342 341 343 344 344 345 346 345 347 346 346 346 345 345 344 344 346 346 347 347 349 348 348 347 348 348 346 348 350 352 351 350 349 351 350 349 347 346 348 346 345 347 344 341 341 341 340 338 337 336 338 339 342 340 340 340 338 339 342 340 340 342 341 341 339 341 339 340 340 341 341 339 340 342 336 337
341 342 343 343 343 343 342 340 341 341 341 341 341 341 341 340 340 343 342 344 344 342 345 343 346 345 346 347 347 349 347 348 347 348 348 348 347 348 351 351 351 351 350 348 347 346 347 346 347 344 343 343 343 342 341 340 338 337 336 339 342 341 342 340 341 340 340 341 340 339 338 338 339 338 338 337 338 338 339 339 337 338 338 336 336
341 342 342 342 342 340 340 339 340 341 340 338 338 337 336 338 340 340 339 342 342 343 343 344 345 345 346 346 347 347 346 347 346 347 348 347 348 348 349 349 351 351 350 350 350 348 349 349 344 344 341 340 339 342 342 340 337 331 334 335 339 341 342 341 339 339 339 337 338 335 336 336 337 336 336 334 334 336 336 336 337 337 336 335 335
340 342 341 341 342 342 341 340 340 340 339 339 338 338 340 339 338 338 339 339 340 340 341 343 344 345 346 347 347 347 346 347 347 348 348 347 347 347 348 347 350 350 350 350 350 345 348 348 345 340 342 339 337 339 340 337 332 329 329 328 331 338 340 340 338 338 338 337 337 337 336 337 335 333 333 331 332 332 334 335 337 335 333 332 333
342 341 342 342 342 342 343 341 340 339 340 340 339 338 341 342 341 339 339 339 343 343 342 342 345 344 347 348 348 348 346 346 347 347 347 347 347 346 347 349 350 350 347 347 348 348 349 346 343 340 337 339 338 340 338 338 330 332 334 333 323 324 332 334 337 337 337 336 336 335 335 333 329 333 332 331 331 331 332 334 334 333 331 330 330
342 342 342 341 341 341 341 341 341 340 340 340 339 340 342 343 343 342 343 342 340 343 344 344 344 345 345 347 347 346 345 346 346 345 346 347 347 346 347 348 350 349 349 347 347 347 348 346 342 341 340 335 335 337 338 337 333 330 325 324 325 323 320 327 324 333 334 335 334 333 333 329 331 331 332 329 329 329 329 333 332 331 329 329 328
340 341 342 340 340 339 336 336 336 337 339 339 339 339 339 340 340 342 343 342 342 340 340 340 341 343 344 345 345 346 345 346 346 346 345 346 346 347 346 348 347 347 347 346 345 342 341 342 342 340 339 336 332 335 337 336 335 335 329 325 324 322 322 324 326 329 332 331 331 331 330 329 329 329 328 328 328 328 329 331 330 329 328 327 326
340 342 342 340 336 332 336 338 337 337 338 339 340 341 338 335 335 334 333 335 334 335 335 336 339 339 340 345 345 344 345 345 345 345 345 345 345 346 346 345 345 345 345 344 342 342 340 340 340 339 337 339 336 331 331 336 334 333 332 331 329 321 320 323 325 318 329 332 331 330 329 327 329 326 327 325 326 328 328 328 328 327 326 324 323
340 342 340 337 334 334 337 340 340 338 339 339 340 340 338 335 335 336 335 335 335 336 340 341 341 342 343 343 343 345 344 346 346 346 345 344 345 345 345 345 344 344 343 343 341 340 340 339 339 337 337 336 335 330 330 329 333 332 331 331 330 328 328 323 317 321 319 325 330 327 328 324 326 324 321 324 326 326 327 327 326 324 323 323 322
341 340 338 334 337 339 339 338 339 339 340 340 340 340 337 336 337 336 337 338 337 336 340 341 343 341 340 342 342 343 345 345 344 344 344 343 343 344 344 344 342 343 341 340 339 338 338 339 338 337 336 334 333 329 328 328 326 327 329 328 328 329 328 328 327 321 319 317 321 326 326 325 325 325 321 322 324 324 324 326 324 323 322 321 321
340 338 337 336 340 341 338 338 337 338 340 340 339 338 337 336 337 338 336 335 337 337 337 340 340 339 339 340 341 340 340 342 342 342 342 343 342 343 342 342 341 341 338 339 338 338 338 337 335 334 332 331 331 331 328 326 328 325 327 327 327 326 326 327 324 324 318 316 315 316 317 321 321 323 323 322 321 325 324 322 321 320 320 320 318
341 339 339 338 340 340 337 337 336 337 338 340 339 339 338 339 338 338 336 336 337 338 338 337 338 337 338 338 338 337 336 339 338 338 341 341 342 342 341 340 339 337 337 336 336 336 335 333 333 332 332 330 329 328 327 327 327 326 325 325 323 323 324 322 320 320 321 321 312 314 315 314 311 318 322 319 318 323 321 320 320 319 318 317 316
338 338 336 337 337 338 338 336 337 337 338 338 339 338 339 340 340 338 336 337 336 336 334 333 334 336 336 335 334 332 333 333 338 341 339 340 340 340 340 339 338 337 336 335 334 333 331 330 330 330 329 327 326 326 326 326 324 323 322 321 320 320 318 317 317 318 318 316 313 313 314 312 313 314 318 319 319 320 316 320 317 317 317 317 316
Wind_Speed
13 15 16 19 16 15 15 15 14 15 15 15 15 14 15 15 14 14 15 15 14 15 15 15 15 15 14 15 14 14 13 13 14 14 13 14 14 14 14 14 14 15 15 15 15 15 14 14 13 13 12 10 10 10 10 10 10 9 9 9 10 10 10 10 9 10 10 10 9 9 9 9 9 9 8 9 9 8 8 6 10 5 5 8 8
16 16 15 18 17 16 15 15 15 15 15 15 16 15 14 16 16 16 16 15 15 15 15 15 15 14 14 14 14 14 13 13 13 14 13 14 14 14 15 15 14 13 14 15 16 15 14 14 14 14 13 12 11 11 11 10 10 10 9 9 9 9 10 9 10 9 8 8 8 9 9 10 9 8 8 8 9 9 8 9 10 8 8 8 7
16 15 15 19 18 16 15 15 15 15 15 15 15 15 15 16 15 16 16 16 15 15 15 15 14 14 14 14 14 14 14 13 13 13 13 14 14 14 14 14 14 14 13 13 13 13 14 13 13 13 13 13 12 12 11 11 10 11 10 9 9 9 9 8 8 8 6 6 6 8 10 9 8 8 8 8 8 8 8 9 11 10 8 8 7
17 14 15 18 18 16 14 15 14 15 14 14 15 15 15 15 15 16 16 16 16 15 15 15 15 14 15 15 14 14 14 14 13 13 14 13 13 14 13 13 13 14 13 13 13 13 13 13 12 13 13 12 12 11 11 10 10 10 10 9 9 9 8 8 7 6 5 3 2 6 3 6 8 7 7 7 7 7 7 7 6 8 7 7 7
16 14 15 16 17 16 14 15 14 16 13 13 14 15 15 15 15 16 15 16 15 15 15 15 15 14 15 15 14 14 13 13 13 13 13 13 13 13 13 13 13 13 13 12 12 12 12 12 12 12 12 12 11 11 9 9 8 8 8 7 7 7 7 7 6 5 4 2 4 10 4 5 5 7 6 5 5 6 6 5 5 5 6 6 5
14 14 15 16 16 16 14 14 15 16 14 15 16 16 15 15 16 15 15 15 15 16 15 15 15 15 15 14 14 13 13 13 13 13 13 13 12 13 12 12 12 12 12 12 12 12 12 12 12 12 12 11 10 9 8 7 7 6 6 6 5 6 6 6 5 4 0 4 8 4 3 4 4 6 5 5 5 4 5 5 6 6 6 6 5
15 13 14 15 14 16 14 15 14 16 15 16 16 16 16 16 16 16 15 15 15 15 15 15 15 15 15 15 14 13 12 13 13 13 12 11 11 13 13 12 12 12 12 12 12 12 11 12 11 11 10 10 9 8 7 6 5 5 4 3 3 2 2 3 2 2 3 8 1 2 2 4 4 5 5 4 4 4 4 5 5 6 5 5 8
12 11 14 14 13 17 15 15 15 16 16 16 16 16 16 16 16 16 15 15 14 14 14 15 15 15 15 14 13 12 12 12 12 12 11 12 12 12 13 12 11 11 12 12 12 11 11 11 11 10 9 9 8 7 6 5 4 3 3 2 2 1 2 2 1 5 6 5 3 2 2 5 4 5 7 3 3 4 5 1 3 3 3 6 4
13 14 14 13 14 21 14 14 15 15 17 16 16 16 16 16 15 15 15 15 15 15 14 15 15 15 14 14 13 12 12 12 12 12 12 12 13 13 12 12 11 10 10 11 11 11 11 10 10 9 8 8 8 7 6 5 4 2 2 1 2 3 3 4 5 7 9 1 1 4 2 3 4 5 7 3 2 3 3 6 9 6 6 4 7
13 13 13 12 14 19 15 14 14 15 16 16 16 16 15 15 15 15 14 15 14 14 14 14 15 15 13 14 13 12 12 12 12 12 12 12 13 13 12 11 11 11 11 11 11 10 10 9 9 8 8 8 7 6 5 4 3 3 2 1 2 4 4 6 7 9 5 1 5 4 6 11 4 6 8 2 2 3 5 6 8 8 8 5 5
15 13 12 12 17 18 15 15 15 15 15 15 16 15 15 14 15 14 14 14 14 14 12 13 14 14 13 13 12 12 11 11 11 12 12 12 12 13 12 11 11 11 11 11 11 11 10 9 8 8 7 7 6 5 4 3 3 3 2 1 1 3 5 7 9 6 2 4 4 4 6 4 2 6 7 2 1 3 2 4 5 6 5 5 5
15 13 12 11 19 18 15 15 15 14 15 16 17 16 15 13 14 14 14 14 14 14 12 11 12 13 13 13 13 12 11 11 10 11 11 11 12 12 12 12 11 10 10 10 10 10 10 9 8 8 7 6 5 4 3 3 3 3 3 1 1 2 4 8 9 2 2 3 7 2 3 3 5 8 3 1 1 1 2 4 4 3 4 5 5
16 14 12 14 16 17 15 15 15 16 15 15 15 16 14 13 14 14 13 13 12 13 13 11 11 11 12 13 12 12 11 10 10 10 10 10 10 11 12 11 10 10 10 10 10 10 10 9 8 8 7 6 5 3 2 3 3 4 4 3 1 2 4 7 7 2 2 3 3 2 3 3 4 8 1 1 1 1 2 4 3 4 4 4 5
15 14 13 15 14 18 15 15 15 15 14 13 13 13 13 14 14 13 11 11 11 11 11 10 10 11 10 11 11 11 11 10 9 9 9 9 9 11 11 11 10 10 9 9 9 9 9 8 8 7 6 5 4 3 2 3 4 4 4 3 2 2 4 8 10 1 2 3 0 3 3 1 6 7 1 2 2 2 4 4 4 4 5 5 5
15 15 15 14 15 17 18 15 14 14 13 12 11 12 12 12 12 11 11 11 11 11 11 10 10 11 10 10 10 10 10 10 9 9 9 8 8 9 9 10 9 9 8 8 8 8 8 8 7 6 5 4 4 3 3 3 3 3 4 3 2 3 6 6 2 2 1 1 1 3 2 3 10 5 2 4 4 4 4 5 5 4 5 5 5
15 15 16 14 15 16 15 16 14 13 12 12 11 11 12 12 11 11 11 11 11 11 10 10 11 10 10 10 10 9 9 9 8 8 8 8 8 8 9 8 8 8 7 7 7 7 7 7 6 6 5 4 4 3 2 3 3 3 2 3 1 3 6 9 1 0 0 1 1 1 0 4 10 6 5 5 5 4 4 5 5 5 6 6 5
14 15 15 15 16 16 15 15 15 14 12 11 11 11 11 11 12 11 11 11 11 11 11 10 10 10 10 9 9 9 8 8 7 7 8 8 7 7 7 6 6 6 6 5 5 5 6 6 6 5 4 4 3 3 2 1 1 2 2 2 1 2 5 8 4 0 1 1 3 1 2 1 9 7 6 6 6 5 5 5 5 6 6 6 5
14 14 14 15 15 15 14 15 15 14 13 12 11 11 11 12 12 12 11 11 12 11 10 9 9 10 10 9 9 8 8 7 7 6 7 7 6 6 5 5 5 5 4 4 4 4 4 4 5 5 4 3 2 2 1 0 1 1 2 2 3 2 5 8 5 1 1 1 4 0 4 10 10 7 7 7 7 6 5 5 5 6 7 7 6
13 13 13 14 14 14 14 14 14 13 13 11 12 12 14 12 13 13 12 12 11 11 11 10 11 10 10 9 8 8 7 7 6 5 5 5 5 4 4 5 4 4 3 2 2 3 2 3 4 4 3 3 2 1 2 2 1 2 2 4 4 5 7 8 6 2 1 3 2 3 2 11 8 8 8 8 9 7 5 4 6 7 7 7 8
11 11 12 12 13 14 13 12 13 13 13 11 11 13 15 15 15 15 15 12 12 13 11 11 10 10 9 9 8 7 6 6 5 6 5 4 3 5 6 3 4 3 2 2 2 1 2 2 3 2 3 4 4 4 3 3 4 3 5 5 6 7 7 6 3 5 4 1 2 5 11 7 9 9 10 9 10 9 6 5 7 7 7 7 8
8 11 10 11 12 13 14 12 13 14 13 12 11 12 13 15 14 15 15 14 13 13 12 11 10 9 9 8 6 6 5 5 6 5 6 5 3 1 2 3 4 3 3 3 1 1 1 1 1 1 3 3 6 7 7 7 6 6 5 7 8 8 5 4 4 4 4 4 2 1 11 7 8 10 11 11 11 10 8 7 7 7 6 8 9
10 10 10 11 11 11 13 13 12 14 13 11 10 10 12 14 13 13 12 13 13 12 11 9 9 8 7 7 5 4 4 4 3 4 4 5 5 2 4 4 4 4 3 3 2 1 1 1 1 2 3 5 8 7 10 10 10 8 7 8 8 6 2 4 4 5 4 4 4 7 7 7 8 10 11 12 12 11 10 7 8 5 4 7 10
10 10 9 11 10 10 11 12 12 13 14 12 10 10 13 12 12 12 10 12 12 11 10 9 8 7 7 5 4 4 4 4 4 2 3 5 6 6 5 5 5 4 4 4 2 2 1 1 2 4 6 9 8 5 4 6 8 10 9 8 6 3 3 3 5 5 5 3 6 10 6 7 7 9 11 12 12 12 11 9 4 4 5 7 9
10 9 10 10 11 10 11 11 12 14 12 10 9 10 11 11 10 10 10 10 11 9 9 8 6 6 6 4 4 4 4 3 6 5 6 5 5 4 4 5 5 5 5 6 6 5 5 7 6 7 9 8 4 3 3 2 2 4 4 3 3 3 5 4 5 4 4 3 3 8 4 5 7 8 9 11 12 12 12 12 7 6 6 7 8
8 9 9 10 12 11 11 11 12 12 13 10 10 10 10 10 10 9 9 9 9 9 7 7 6 6 5 4 5 5 4 5 6 5 3 3 4 5 6 6 5 6 9 5 6 6 8 7 7 8 5 2 2 2 2 3 2 3 2 3 3 4 5 4 4 5 5 4 2 6 2 4 6 7 8 10 11 12 12 12 8 7 8 8 7
9 8 10 11 11 11 12 11 12 12 12 10 10 10 10 9 9 9 9 8 8 8 7 6 6 6 5 5 6 5 4 4 4 3 3 3 3 3 3 3 3 5 6 5 4 4 5 3 4 3 2 2 1 1 2 3 3 3 3 3 4 4 4 4 4 4 4 3 2 5 2 4 6 6 7 9 10 10 12 12 11 10 10 9 9
11 8 10 10 11 12 12 12 12 12 12 10 9 9 9 9 9 9 9 8 8 8 7 6 6 7 6 6 6 5 4 4 4 4 3 4 3 3 3 3 4 4 3 3 3 3 3 2 2 3 1 2 2 1 3 3 3 5 4 4 4 5 4 4 4 3 4 3 3 7 4 3 5 5 6 7 8 9 10 11 12 11 9 9 9
10 9 11 10 11 12 12 12 12 12 11 10 10 9 9 9 9 9 8 8 7 7 7 7 7 7 6 6 5 5 5 5 6 5 4 3 3 1 1 2 3 3 2 2 3 3 2 1 1 2 2 1 2 3 3 3 3 3 4 4 4 4 3 4 3 3 4 2 2 8 5 3 3 4 5 5 7 6 8 9 11 11 11 10 11
12 11 10 10 12 12 12 12 12 12 11 10 10 9 9 8 9 9 8 9 7 7 7 7 7 7 7 6 6 5 5 5 5 4 3 3 3 2 2 2 1 1 2 1 1 2 2 2 1 2 1 2 2 3 3 4 4 3 3 3 3 3 3 4 3 3 3 4 4 4 5 3 1 3 2 4 4 5 5 7 9 11 12 11 11
12 11 11 11 12 11 12 12 12 11 10 10 9 9 9 9 9 9 8 8 7 7 8 7 7 7 7 7 6 5 5 5 5 4 5 5 4 4 3 3 3 2 2 2 1 2 1 0 2 3 2 2 2 2 3 3 4 3 3 3 2 3 3 3 3 4 4 4 3 1 8 5 3 1 2 2 3 5 5 6 7 9 11 12 12
11 12 11 11 11 12 11 11 11 12 11 11 10 10 10 10 10 9 9 8 8 8 8 7 7 7 7 7 7 6 5 5 5 5 4 4 4 4 3 3 3 2 2 2 2 1 1 1 1 2 2 2 2 1 3 3 4 4 2 4 2 2 3 3 3 3 4 4 4 4 2 9 5 3 1 2 4 5 6 7 8 9 10 10 11
11 12 10 10 12 12 12 13 12 12 12 12 11 10 10 10 9 8 9 8 9 8 8 7 8 7 7 8 7 6 6 5 5 5 4 4 4 3 3 3 2 2 2 1 1 1 1 0 1 1 2 2 1 2 2 3 4 4 4 3 4 4 3 3 3 3 4 5 4 3 4 1 9 4 3 2 4 6 7 7 7 8 9 10 10
10 12 11 11 13 13 11 13 14 14 14 14 12 11 10 9 9 8 8 8 9 8 8 8 7 7 7 8 8 7 6 6 5 5 4 4 3 3 3 3 3 1 2 1 1 2 1 1 1 2 2 2 1 1 2 3 2 3 4 4 3 3 4 5 4 3 4 4 4 3 3 3 1 9 6 4 5 6 6 7 7 8 8 9 10
11 10 11 13 12 11 11 12 15 15 16 14 13 11 11 9 9 9 8 9 8 8 9 8 7 8 8 9 7 7 6 6 6 5 5 4 4 4 3 3 2 2 2 2 2 1 0 1 1 2 1 2 2 2 2 3 4 3 2 4 4 4 4 4 4 4 3 3 3 3 3 3 2 3 3 9 8 6 5 6 7 7 8 8 9
11 12 14 14 15 13 12 12 14 15 14 14 14 12 11 10 9 9 9 9 8 8 9 8 8 8 8 8 8 7 6 6 6 5 6 5 5 4 4 3 2 2 2 2 2 1 1 1 1 3 1 2 2 2 3 3 5 6 5 5 4 4 3 3 3 3 3 2 2 3 3 3 3 4 4 2 11 9 5 4 5 6 8 9 10
13 14 14 15 15 15 13 11 13 14 14 14 13 13 12 11 10 9 9 10 9 9 9 9 9 8 8 7 8 7 6 6 5 5 5 5 5 4 4 2 3 2 2 2 2 1 0 1 1 2 2 3 3 3 3 4 5 5 5 5 4 4 4 3 3 2 3 2 3 3 3 5 5 4 5 4 5 7 6 3 1 2 7 10 11
14 16 16 16 15 13 12 14 16 16 14 14 14 13 12 12 11 10 9 10 8 9 9 9 9 8 7 7 8 7 6 6 6 5 5 5 4 4 2 3 2 2 2 2 2 1 1 1 1 2 3 4 4 4 4 4 5 5 4 4 3 3 3 3 1 2 2 3 4 4 4 4 4 3 4 5 4 5 8 4 2 5 7 12 11
15 16 16 15 13 14 14 13 13 14 12 12 11 11 11 10 9 9 8 8 9 8 8 8 8 7 7 7 7 7 6 6 6 5 4 4 4 3 3 3 3 2 2 2 1 1 1 1 1 1 3 3 3 4 5 5 5 5 5 5 4 3 1 1 2 2 3 4 4 4 4 5 5 5 5 4 5 4 6 2 3 12 10 12 10
14 16 15 14 13 13 12 13 13 13 12 13 11 10 9 9 8 8 9 10 9 8 7 8 7 7 7 7 7 6 6 6 6 5 4 5 4 3 2 2 2 2 2 2 3 2 1 1 1 1 2 3 3 4 4 5 5 5 5 4 3 1 1 2 2 2 3 3 3 4 3 4 4 5 5 5 4 6 5 5 6 5 7 12 10
15 16 16 15 15 13 12 12 11 11 11 11 10 10 8 9 9 9 9 9 8 7 7 7 6 7 7 7 7 6 6 5 5 5 5 4 3 2 2 3 2 2 2 1 2 2 1 1 0 1 1 2 1 4 5 6 6 5 4 3 0 1 2 2 2 2 2 2 3 3 4 4 4 5 5 5 5 5 5 5 6 5 6 7 11
15 16 16 17 16 13 12 13 11 11 11 11 10 10 9 9 9 8 8 8 8 8 8 7 7 7 7 7 7 5 6 6 5 5 5 4 3 2 3 3 2 2 2 2 2 2 1 0 0 1 2 3 3 5 6 7 6 3 4 1 1 1 3 2 2 3 3 3 3 5 4 5 6 5 5 5 5 5 6 6 6 7 7 9 5
16 17 17 16 15 13 12 11 10 10 10 10 10 9 9 9 9 9 8 8 8 9 8 8 8 7 8 7 6 6 7 6 5 5 5 4 3 3 3 3 2 2 2 2 3 2 1 1 1 1 1 3 3 5 7 8 4 6 5 2 3 3 3 3 2 2 3 3 3 4 4 5 6 7 5 5 5 5 6 6 6 6 7 8 7
16 16 16 15 13 12 10 10 9 9 9 10 10 10 10 10 10 9 8 8 7 7 7 8 7 7 6 6 6 6 7 6 6 5 4 4 4 4 3 3 3 3 3 3 3 2 0 0 2 2 2 1 2 4 6 7 6 7 5 5 1 3 4 3 3 2 1 3 4 4 5 6 7 7 5 5 5 5 5 6 6 7 7 7 8
13 14 13 13 10 10 8 7 7 8 11 12 12 12 11 9 8 7 7 6 7 5 5 6 7 6 7 6 6 7 7 6 6 6 5 4 4 4 4 4 4 3 3 3 2 2 1 1 2 2 4 3 3 3 5 6 6 7 4 5 2 5 2 3 4 1 3 2 2 4 5 6 6 6 5 6 6 6 7 7 7 8 8 8 8
13 12 11 9 7 7 8 12 14 15 15 15 15 12 10 10 9 9 7 5 4 6 7 7 6 6 6 7 7 7 6 5 5 5 5 5 5 4 4 4 4 3 3 3 2 2 1 2 3 3 4 4 4 3 4 5 6 6 5 5 2 2 5 5 7 1 2 1 3 4 5 7 6 5 5 5 6 6 5 6 7 6 7 8 8
13 9 9 10 12 10 15 14 12 12 12 14 13 10 11 11 11 10 10 8 8 9 9 8 7 8 8 7 6 6 6 4 5 5 5 4 5 4 4 4 4 3 2 2 2 2 2 3 3 3 3 5 5 3 2 3 4 4 5 5 4 5 5 6 7 2 3 5 1 2 4 5 4 5 5 6 6 6 6 5 7 7 7 7 7
12 10 9 12 14 18 16 10 7 9 9 10 11 10 11 10 11 10 8 8 8 7 5 6 6 6 7 7 6 5 5 5 5 4 4 5 5 5 4 4 4 4 3 3 2 2 3 4 4 4 4 3 3 2 2 3 2 3 3 3 3 3 4 5 4 5 2 2 0 3 3 6 5 6 6 6 6 5 5 5 5 6 6 6 7
10 11 11 11 14 10 7 9 8 11 9 9 11 10 10 11 11 10 7 6 6 5 4 5 5 5 6 7 6 5 4 4 3 4 5 5 6 6 5 5 5 4 3 3 3 4 3 3 4 4 4 4 4 3 3 3 3 4 1 1 0 1 1 2 3 5 4 5 0 3 4 6 4 5 6 7 6 6 5 5 6 7 6 6 6
13 14 14 10 8 10 13 11 11 10 10 10 10 11 10 12 9 8 7 6 6 5 6 5 6 6 7 6 6 5 3 1 3 3 5 5 6 6 6 5 5 4 3 3 3 3 4 5 4 5 4 4 4 3 2 3 3 3 3 2 2 2 1 2 3 3 4 5 2 4 5 4 3 4 6 7 6 5 5 7 7 7 7 7 8
11 14 15 12 10 11 13 15 15 13 13 12 11 12 12 12 10 9 11 9 6 6 6 6 6 7 7 6 4 5 6 4 3 3 4 5 6 6 6 6 6 5 3 4 4 4 4 4 5 5 5 5 4 4 4 3 4 4 4 3 3 2 2 2 4 5 3 3 5 6 6 6 6 3 4 7 7 5 7 7 8 9 9 9 10
12 13 15 13 12 14 16 15 14 11 12 12 11 13 13 12 11 12 12 10 10 8 8 6 5 7 7 7 8 7 6 5 2 1 3 5 5 6 6 6 6 4 3 4 3 4 4 5 6 6 6 5 4 5 6 5 4 5 5 5 5 5 5 5 5 5 5 5 6 5 6 6 6 4 4 4 4 4 7 5 6 6 7 8 8
Wind_Direction
158 146 143 140 149 150 159 160 160 157 155 152 148 141 138 137 134 134 136 134 135 135 133 131 130 129 128 125 122 120 118 117 113 110 108 107 107 105 104 107 111 111 107 107 108 105 101 98 95 91 91 93 97 98 92 86 85 85 85 82 76 75 71 74 78 81 78 75 75 74 67 64 65 64 65 64 60 57 45 18 357 302 53 59 38
153 146 140 149 146 151 161 160 161 158 157 152 147 143 141 140 139 138 138 137 137 135 134 132 131 130 127 123 122 120 118 115 113 110 107 106 105 104 102 100 100 102 110 114 109 106 104 101 98 97 94 93 92 92 92 94 87 88 83 77 76 77 70 68 67 69 70 75 80 81 75 72 66 65 68 64 64 56 47 21 10 344 67 50 53
144 142 143 148 148 150 161 160 161 160 159 153 148 144 143 142 140 139 139 139 137 137 134 133 131 130 127 124 122 122 120 118 114 111 111 109 106 104 102 102 101 106 109 111 111 108 110 110 104 95 94 95 95 96 96 93 91 84 81 78 72 65 63 62 60 60 70 76 82 103 106 89 72 72 70 67 59 56 50 41 28 9 63 41 37
141 141 145 142 145 149 158 160 162 161 158 156 150 146 145 143 142 141 140 139 139 137 136 134 133 131 128 125 125 124 123 120 117 116 114 112 111 108 105 103 104 105 109 112 113 112 111 113 107 103 101 99 98 95 92 89 86 82 77 73 67 60 57 60 65 68 63 64 271 227 151 122 101 70 68 63 57 55 50 54 52 45 50 44 44
138 143 144 150 152 150 160 160 161 162 158 156 152 148 147 145 143 142 142 140 139 139 138 135 134 132 130 127 125 126 125 121 120 119 116 114 108 106 106 106 105 106 108 109 111 111 110 110 107 109 109 105 101 98 90 90 88 88 83 83 85 80 67 58 57 58 48 358 278 268 93 92 98 81 69 62 63 47 50 54 55 42 28 34 48
141 142 146 158 158 153 160 159 162 162 159 159 156 152 150 147 145 144 143 142 141 141 139 138 135 134 130 128 128 127 126 125 123 122 119 115 117 113 109 106 106 108 110 114 112 114 114 112 113 114 114 109 102 100 97 95 93 92 94 90 95 90 83 68 52 46 255 254 248 247 78 85 92 111 74 74 61 44 39 40 29 21 20 344 50
142 142 148 157 158 156 159 161 163 161 161 162 159 156 153 150 148 146 145 144 142 142 141 139 137 134 131 130 130 129 130 130 129 126 125 125 116 115 109 108 110 111 114 116 118 116 118 119 119 117 116 113 110 106 107 103 104 99 100 119 104 106 114 56 46 5 269 246 210 64 84 81 78 94 105 79 58 33 32 32 24 10 26 348 352
140 144 150 156 161 152 160 161 163 161 162 164 161 158 155 152 150 148 147 145 143 144 143 140 138 135 134 131 130 132 133 133 131 129 127 120 119 111 106 104 105 109 114 117 121 122 124 124 121 120 116 113 112 111 109 108 101 109 118 137 180 199 239 232 278 240 261 263 49 40 74 59 69 86 98 65 31 14 18 3 23 111 14 36 350
146 147 151 152 157 149 158 162 162 163 163 165 161 159 156 153 151 150 148 147 146 146 144 143 140 135 133 133 132 134 136 136 134 130 126 123 116 107 104 102 102 104 105 114 121 126 126 126 125 120 117 112 112 113 110 114 112 114 113 153 226 209 236 247 238 247 239 81 58 79 336 100 80 86 96 58 356 10 11 314 180 146 113 45 333
146 150 147 157 158 148 158 159 164 166 163 165 161 160 157 154 152 151 149 149 147 146 145 145 141 137 135 134 134 135 137 135 134 130 127 122 115 110 108 108 108 111 110 109 110 115 120 122 124 120 115 114 116 114 115 114 121 104 108 173 198 228 230 234 242 244 276 150 97 60 36 347 23 70 80 58 2 39 353 319 351 0 12 359 352
147 146 153 157 155 146 157 160 163 168 165 163 160 160 158 156 153 151 151 150 148 146 146 145 142 139 137 135 136 136 136 135 135 132 128 123 119 113 112 111 108 112 114 114 117 119 122 120 118 115 116 118 116 120 123 121 105 90 75 102 233 228 235 227 226 226 143 87 88 99 114 272 5 61 79 45 345 4 328 334 346 352 336 333 344
146 148 153 155 133 149 157 161 165 167 167 164 160 160 158 155 153 151 152 151 150 147 145 143 143 142 139 138 137 137 135 136 133 128 126 123 118 117 114 107 105 104 106 112 114 117 121 121 119 120 121 119 121 118 117 98 75 67 55 57 132 202 208 231 233 123 122 90 75 341 74 192 68 87 90 92 10 318 314 321 318 312 308 331 338
147 150 153 139 151 147 159 161 164 167 168 164 161 159 156 155 153 153 152 151 149 147 145 141 143 141 140 140 140 139 136 132 131 131 128 127 123 119 111 111 110 109 107 108 114 116 118 119 119 119 120 121 115 108 89 68 58 45 36 48 123 161 208 237 238 112 96 90 91 156 114 50 101 97 137 243 329 247 297 292 286 282 300 306 320
146 150 150 155 162 153 158 163 164 166 168 166 161 156 156 156 155 153 150 148 148 145 141 141 140 140 139 141 143 140 139 134 134 132 133 131 130 122 120 118 116 114 113 112 110 111 113 115 115 114 117 115 110 98 65 57 56 46 38 44 111 189 214 224 261 133 83 94 118 53 62 79 78 99 143 263 238 268 264 270 267 278 305 318 308
146 151 153 160 155 163 160 160 164 166 164 164 162 157 155 153 151 147 146 146 145 140 142 140 138 138 140 140 139 140 139 140 135 133 132 132 136 129 122 121 119 121 119 115 113 110 109 111 111 112 106 96 79 60 37 25 35 42 45 42 97 225 231 253 189 85 148 64 116 220 142 141 107 136 182 235 244 257 263 270 295 302 306 309 311
148 153 157 158 162 164 164 161 163 163 163 162 160 158 154 150 146 143 143 144 140 140 137 138 141 138 139 140 142 142 141 143 141 138 133 134 138 141 130 124 124 123 122 121 118 114 114 111 112 109 102 95 95 84 47 16 8 13 12 34 359 235 262 289 296 58 118 193 142 292 261 102 127 137 210 235 241 251 264 267 277 296 301 316 315
152 158 158 160 163 166 168 166 165 163 160 159 159 157 150 145 143 142 144 141 140 139 137 139 141 139 139 138 143 143 141 141 140 140 148 143 146 144 142 132 136 132 122 119 120 119 115 118 115 110 104 96 108 102 98 81 2 336 353 308 350 261 270 283 297 246 325 33 321 287 279 109 137 161 208 225 241 248 257 265 291 298 298 295 296
159 164 162 161 164 168 166 169 163 169 168 163 159 153 146 143 143 142 143 142 141 138 138 138 143 139 140 141 144 146 146 144 148 152 148 153 140 153 150 153 150 147 134 129 122 118 115 114 118 115 109 117 105 107 103 327 316 332 269 267 237 253 259 254 267 255 232 289 262 124 294 94 137 175 204 225 242 244 252 272 295 295 300 291 292
163 165 166 163 165 168 165 168 167 174 166 171 170 156 150 146 145 144 143 143 141 139 137 142 147 146 146 147 148 152 155 154 151 165 155 138 166 163 161 168 174 173 157 146 138 120 109 114 114 110 128 130 143 153 228 234 257 266 262 241 231 228 242 241 249 279 246 241 264 285 98 122 152 182 210 225 240 249 260 287 280 275 282 288 289
163 165 173 167 165 169 165 168 171 175 169 171 171 165 157 155 153 149 148 145 143 144 140 145 149 149 145 147 149 155 163 164 169 173 166 160 146 298 135 196 198 190 183 181 173 137 123 103 103 129 137 161 168 195 219 218 222 231 234 232 234 233 228 237 314 297 304 277 330 291 109 158 165 193 212 224 235 243 255 257 258 261 267 270 281
164 170 176 172 169 167 168 168 174 172 170 171 169 169 157 159 157 153 153 153 150 150 149 148 150 148 152 144 155 185 166 154 180 177 150 187 133 102 162 182 219 221 204 212 210 172 113 119 111 146 199 202 207 201 199 203 219 221 220 228 227 233 242 296 284 286 273 306 208 273 124 159 188 202 217 225 230 240 250 234 252 259 260 270 273
170 170 178 175 168 169 171 168 175 172 170 172 172 168 156 172 169 159 161 159 155 154 160 159 165 153 149 152 181 157 169 162 160 147 166 141 161 166 184 191 212 207 209 215 202 183 169 107 192 250 268 244 242 230 186 190 194 204 219 220 229 250 248 262 277 285 308 284 293 102 142 162 205 217 222 228 234 235 242 236 245 243 257 270 279
172 172 175 177 170 169 175 169 173 173 169 174 170 168 161 178 168 166 165 166 156 169 167 161 171 163 168 170 163 155 168 152 157 139 119 89 109 177 167 177 185 188 200 204 195 177 172 204 241 262 261 254 240 233 240 175 168 188 203 215 243 263 306 286 275 272 278 357 305 105 137 188 214 225 231 235 237 237 239 247 206 229 247 263 277
174 174 168 173 174 169 176 170 172 172 171 175 171 170 168 178 167 169 167 171 164 172 164 172 173 170 167 165 158 147 153 146 107 131 150 159 134 166 175 166 181 186 184 199 189 195 218 211 215 235 232 229 234 244 249 237 246 187 195 242 260 287 263 266 279 297 301 318 336 97 126 221 225 237 244 247 246 241 241 245 219 220 236 252 266
174 171 165 170 175 171 174 172 172 175 176 174 172 171 169 181 171 170 172 169 173 165 166 171 164 165 168 175 147 153 170 151 162 164 164 145 148 155 179 183 173 160 196 198 188 155 204 186 184 206 230 232 255 297 292 301 260 273 277 280 295 292 290 288 293 296 298 301 39 94 173 247 246 243 249 253 253 248 245 244 221 221 233 241 248
176 180 168 165 172 172 174 170 174 174 180 174 178 165 166 181 174 174 172 172 165 166 166 165 164 171 172 158 145 159 178 158 155 146 146 155 164 162 176 153 168 155 192 181 172 176 192 195 212 204 205 224 254 251 302 286 290 287 295 297 284 283 284 290 289 284 292 298 110 119 170 262 261 259 261 262 260 256 250 247 233 224 229 228 233
183 181 173 166 172 172 172 170 174 174 179 181 176 171 176 178 176 174 174 169 170 165 169 166 173 167 170 154 160 166 172 155 156 164 156 177 151 168 157 162 176 163 183 170 152 176 201 176 195 209 212 242 246 307 248 256 286 293 283 294 298 292 300 302 300 307 306 300 113 135 156 245 252 262 268 270 269 267 260 252 249 235 234 236 235
187 178 176 166 168 174 173 169 175 175 174 179 179 176 181 177 178 171 178 167 165 167 168 172 165 170 167 163 170 170 167 163 159 165 165 180 154 115 173 174 186 163 172 165 166 158 182 191 214 236 240 263 263 259 289 279 281 283 295 288 299 304 305 302 313 313 306 308 326 136 147 188 243 270 270 269 278 273 271 264 259 254 247 250 242
187 182 174 168 168 170 176 173 170 178 173 179 180 180 178 181 178 181 175 168 175 172 172 164 173 165 170 163 179 169 170 161 160 158 159 141 134 167 190 178 227 160 161 149 145 173 185 211 215 257 228 256 270 275 289 297 284 279 293 296 310 312 308 306 320 322 308 329 310 103 120 149 280 270 281 293 291 293 284 278 271 267 265 263 259
189 181 176 175 168 166 173 173 172 177 173 181 183 182 179 180 182 182 169 174 175 169 166 176 173 168 168 170 174 170 173 163 157 156 168 160 161 172 191 188 187 180 180 170 171 204 202 199 236 259 277 253 284 315 300 299 288 295 302 312 291 303 322 307 311 312 335 305 311 4 142 160 202 248 278 319 325 332 322 308 294 284 274 272 269
183 179 179 175 162 167 166 172 173 177 176 185 187 183 181 184 184 179 179 180 175 166 179 179 176 176 166 171 171 173 175 165 164 166 159 164 165 185 193 189 199 172 204 173 197 214 215 196 300 302 290 313 312 324 312 319 309 297 337 293 317 298 304 317 317 318 314 321 327 325 149 157 160 156 340 18 2 356 342 334 322 312 301 292 285
181 177 174 170 160 167 167 171 177 180 181 186 186 185 186 182 181 183 184 177 168 171 182 183 179 174 169 173 172 174 180 166 168 163 162 167 183 185 190 212 199 186 188 199 200 234 225 341 299 286 291 288 319 314 326 301 313 324 315 323 335 331 333 324 323 334 331 325 323 333 328 83 153 140 127 40 29 11 358 346 335 322 313 311 310
181 174 168 172 159 166 167 176 180 179 186 186 186 184 186 181 180 184 183 169 175 174 186 183 183 172 172 177 176 173 183 172 173 171 165 174 173 195 203 203 207 182 181 185 236 232 211 213 194 249 270 281 285 293 291 282 284 317 316 317 319 325 357 327 336 333 336 317 332 332 335 347 19 153 149 112 76 27 10 354 340 333 327 324 321
173 173 167 171 163 172 176 180 186 182 187 187 185 184 184 181 180 184 176 176 178 174 187 179 181 176 176 181 178 177 190 175 169 172 174 168 187 197 205 204 188 185 185 200 221 228 245 308 293 277 301 295 300 324 311 325 326 299 316 334 326 0 330 323 334 326 326 345 343 349 359 349 358 12 112 127 95 71 29 8 359 358 352 350 342
168 170 173 172 176 177 180 184 187 188 186 187 185 184 182 181 180 182 178 181 173 174 184 180 181 179 177 173 182 185 186 181 173 176 178 180 189 193 206 193 180 203 208 179 260 218 226 270 321 306 327 288 312 352 342 330 329 326 344 337 336 333 313 318 321 331 353 13 354 27 21 24 16 22 3 70 132 106 85 20 29 13 24 17 8
173 172 177 180 181 182 183 180 179 186 186 188 188 185 181 180 178 177 182 178 176 178 181 182 181 177 177 170 178 182 183 185 178 179 184 193 193 198 192 170 189 212 182 165 223 204 154 286 305 294 302 320 328 337 337 347 326 332 329 319 333 316 324 326 335 0 12 2 49 37 32 40 26 36 11 12 350 106 93 95 358 50 55 38 22
176 179 184 185 182 180 178 183 182 187 186 188 190 185 182 177 177 180 184 177 177 182 177 183 180 176 173 176 172 177 184 184 187 184 197 194 197 191 184 167 207 198 169 163 186 188 153 264 291 338 326 325 332 351 340 341 328 314 295 312 329 313 309 337 358 5 54 36 42 54 47 37 52 30 33 6 2 348 133 127 198 157 104 52 39
182 186 187 183 181 178 184 186 183 184 184 188 190 187 182 177 176 180 181 179 180 183 176 183 177 178 177 176 174 175 187 186 186 185 197 202 198 187 175 182 195 181 169 180 152 129 78 348 310 350 343 326 336 352 346 342 325 317 325 340 325 314 326 339 22 10 26 41 49 42 38 40 26 26 13 9 0 1 347 93 209 133 84 76 49
183 189 187 188 187 184 185 184 182 181 183 185 187 186 181 183 176 178 187 184 182 185 179 182 179 178 181 175 178 175 187 188 188 186 197 195 195 175 183 196 201 188 170 188 146 119 80 38 319 2 345 343 349 357 349 333 322 320 319 331 300 295 302 27 356 34 40 40 46 37 27 27 15 13 2 352 11 356 357 356 350 340 84 91 84
186 193 192 191 193 186 183 182 179 178 180 181 184 187 180 186 186 194 185 190 188 180 181 186 181 182 181 179 183 184 186 187 187 191 197 200 199 173 185 206 192 194 166 159 143 137 134 205 20 333 336 306 5 354 359 340 320 303 322 313 36 251 199 89 39 20 41 43 29 26 5 3 355 353 351 354 5 2 355 358 354 7 352 100 108
187 189 192 196 194 185 181 178 176 177 178 179 184 189 185 183 193 192 185 188 186 178 182 187 188 181 180 184 188 185 190 183 190 194 199 195 199 188 206 207 195 177 164 140 117 105 127 0 247 316 336 333 20 5 15 337 305 307 327 265 183 104 159 154 51 27 13 18 20 14 13 357 358 348 353 350 355 11 353 6 9 2 9 353 15
191 192 195 195 193 187 183 174 167 175 185 184 179 189 190 187 182 184 188 183 179 183 182 184 187 177 184 187 191 187 185 183 192 198 200 200 194 198 207 192 186 161 153 136 138 137 169 223 294 295 51 2 20 31 14 340 344 352 324 309 156 130 148 178 121 60 2 31 31 22 6 1 6 348 351 348 1 5 11 4 15 15 14 355 355
191 194 195 192 188 186 177 167 157 174 186 191 185 190 188 183 188 180 192 181 185 186 186 187 180 182 183 189 186 188 184 187 192 191 197 206 205 204 195 166 182 160 156 152 150 158 103 333 347 345 340 52 36 44 25 6 340 333 277 256 143 212 158 179 175 112 29 43 36 27 14 359 13 2 1 8 6 8 14 16 18 28 6 355 352
193 195 193 190 180 180 159 128 148 189 194 194 195 186 181 175 185 178 187 184 177 172 173 172 180 183 185 186 184 185 187 190 188 187 188 195 203 201 181 168 167 164 147 154 131 122 133 55 45 14 355 342 16 55 67 23 3 346 355 334 336 290 187 109 352 65 108 88 52 38 29 9 8 13 7 11 8 8 12 22 18 13 3 358 353
197 193 184 172 175 111 122 177 188 190 192 191 191 183 174 174 175 171 172 150 143 175 177 176 179 181 183 183 183 187 189 189 191 188 178 184 192 191 175 165 158 146 150 139 137 94 57 54 30 18 19 358 353 27 61 39 33 10 353 324 276 230 30 355 323 99 154 302 70 27 40 8 10 9 12 23 4 11 10 23 19 3 5 353 359
195 180 154 163 98 141 202 189 192 193 187 187 185 177 172 173 172 170 173 177 177 182 186 175 169 179 183 176 181 187 182 178 190 186 173 171 166 165 165 158 145 137 126 97 94 93 51 39 25 13 32 29 349 354 16 95 51 39 26 24 3 348 336 333 295 35 250 96 298 52 32 15 21 9 22 16 5 20 15 19 5 1 1 358 354
189 154 138 130 154 186 189 168 158 178 182 177 182 177 168 170 167 162 167 186 189 187 179 172 175 174 172 168 175 180 183 169 193 170 163 155 152 149 147 137 120 114 97 92 77 52 45 35 21 27 11 33 2 9 17 16 150 81 37 38 23 0 351 332 3 306 295 131 86 45 51 21 28 22 18 12 357 32 16 17 2 349 346 354 352
170 136 146 158 180 176 151 155 161 168 162 171 178 172 173 169 160 166 165 155 160 178 179 159 172 166 166 171 172 168 165 169 174 147 155 153 144 137 133 122 117 102 100 85 70 59 75 68 55 39 40 31 27 20 20 52 343 59 43 29 342 291 81 355 3 333 305 312 25 107 58 33 8 40 21 2 360 18 12 10 358 358 350 356 348
171 163 164 163 156 159 179 169 165 162 163 166 176 173 181 172 149 148 150 176 181 175 169 162 176 173 166 167 176 150 113 340 118 141 153 139 140 134 127 120 107 104 103 95 82 70 46 50 50 52 46 55 53 39 52 40 20 40 347 57 344 352 92 86 11 348 346 334 359 357 352 12 358 36 21 4 356 14 15 12 359 355 354 357 354
159 166 160 161 171 171 178 180 176 172 169 162 172 175 175 165 162 173 171 174 168 156 150 159 170 176 165 163 132 87 63 10 75 207 139 132 126 122 115 100 91 79 75 74 80 76 74 70 59 59 63 73 63 62 44 53 58 41 27 15 28 17 36 38 28 5 9 12 336 338 347 353 352 14 35 0 358 3 14 6 359 359 356 355 356
161 166 160 170 185 189 190 182 177 171 163 160 173 185 175 173 176 169 178 160 163 155 148 162 175 181 164 141 102 104 153 148 159 109 116 102 102 99 101 93 89 99 101 102 101 86 86 80 77 73 73 79 81 75 68 61 62 58 41 39 43 38 25 26 13 10 356 0 340 344 341 6 334 339 59 10 353 6 19 356 358 359 351 357 352